カタログに戻る

GLOBALSTAR M089

運用中通信LEO
NORAD 37744·PAYLOAD·🇺🇸 United States

打ち上げ Jul 13, 2011 から Baikonur Cosmodrome

Loading…

次のパス (今後24時間)

TLE

最新Source: Space-Track

元期: Sep 14, 2026, 00:22 UTC

1 37744U 11033F   26257.01588774 -.00000102  00000-0  96970-5 0  9995
2 37744  51.9913 239.3291 0000384  26.3660  14.4647 12.62263598702001

AllMySatでGLOBALSTAR M089をリアルタイム追跡

Download on the App Store